Location: Dittelbrunn
(50.0738°N, 10.2196°E)
Time: 21:08:03
(UTC+00:00)

Cosmos 2026 Rocket - Pass Details

Date: 18 September 2020
Orbit: 940 x 1000 km, 82.9° (Epoch: 20 October)

Event Time Altitude Azimuth Distance (km) Brightness Sun altitude
Rises 19:55:30 0° 349° (N) 3,714 7.7 -23.5°
Reaches altitude 10° 19:58:02 10° 349° (N) 2,767 6.9 -23.8°
Maximum altitude 20:04:24 83° 263° (W) 1,012 4.0 -24.6°
Enters shadow 20:06:56 40° 179° (S) 1,440 4.6 -25.0°
